Regional Weather Roundup
Issued by NWS Albany, NY

Current Version | Previous Version | Graphics & Text | Print | Product List | Glossary Off
Versions: 1 2 3 4 5 6 7 8 9 10 11 12 13 14 15 16 17 18 19 20 21 22 23 24 25 26 27 28 29 30 31 32 33 34 35 36 37 38 39 40 41 42 43 44 45 46 47 48 49 50

287
ASUS41 KALY 262010
RWRALY

NEW YORK STATE HOURLY WEATHER ROUNDUP
NATIONAL WEATHER SERVICE ALBANY NY
400 PM EDT MON JUN 26 2017

NOTE: "FAIR" INDICATES FEW OR NO CLOUDS BELOW 12,000 FEET WITH NO
SIGNIFICANT WEATHER AND/OR NO OBSTRUCTIONS TO VISIBILITY.

NYZ032-033-038>043-046>054-057>066-NYZ062>081-082-084-262100-
EAST


CITY           SKY/WX    TMP DP  RH WIND       PRES   REMARKS
ALBANY         PTSUNNY   73  54  51 VRB3      29.96S
GLENS FALLS    MOSUNNY   71  53  52 SW8G18    29.93F
POUGHKEEPSIE   SUNNY     77  48  35 SW15      29.95F
NEWBURGH       MOSUNNY   73  54  49 W9G17     29.99S
MONTGOMERY     PTSUNNY   75  49  39 SW8       29.97F
WHITE PLAINS   MOSUNNY   76  48  37 SW8       29.99S
ISLIP          MOSUNNY   76  53  44 S16       29.99F
NEW YORK CITY  MOSUNNY   78  50  37 S15G26    29.98S
CENTRAL PARK   PTSUNNY   77  51  40 SW8       30.01S
$$

NYZ005>009-017-018-044>046-055-056-262100-
CENTRAL


CITY           SKY/WX    TMP DP  RH WIND       PRES   REMARKS
FULTON         CLOUDY    66  57  72 CALM      29.96F
SYRACUSE       PTSUNNY   70  57  63 CALM      29.96S
ROME           CLOUDY    66  55  67 W3        29.98F
ELMIRA         CLOUDY    72  50  45 W9        29.95F
BINGHAMTON     MOSUNNY   68  45  43 VRB5      29.99F
MONTICELLO     PTSUNNY   70  46  43 SW6G16    30.01F
$$

NYZ026>034-041>043-087-262100-
NORTH


CITY           SKY/WX    TMP DP  RH WIND       PRES   REMARKS
WATERTOWN      MOSUNNY   69  56  62 W14       29.95S
FORT DRUM      NOT AVBL
OGDENSBURG     CLOUDY    66  55  67 S6        29.95R
MASSENA        PTSUNNY   71  47  42 SW6       29.95S
SARANAC LAKE   CLOUDY    61  49  64 SW14G20   29.97R
PLATTSBURGH    SUNNY     70  47  43 SE10      29.94S
$$

NYZ001>004-010>016-019>021-085-262100-
WEST


CITY           SKY/WX    TMP DP  RH WIND       PRES   REMARKS
NIAGARA FALLS  MOSUNNY   73  50  44 SW24G32   29.95R
BUFFALO        MOSUNNY   69  51  52 SW22G29   29.96R
DUNKIRK        CLOUDY    69  53  56 W20G32    29.98S
JAMESTOWN      PTSUNNY   63  48  59 S10       30.01F
WELLSVILLE     CLOUDY    61  51  70 NW8       30.02F
ROCHESTER      PTSUNNY   72  49  44 SW14G26   29.94F
PENN YAN       LGT RAIN  61  51  70 S8        29.99R
$$

             KEY
       WCI = WIND CHILL INDEX
       VSB = VISIBILITY
       HX  = HEAT INDEX
$$




USA.gov is the U.S. government's official web portal to all federal, state and local government web resources and services.